Tracking 19246 objects as of 21-Aug-2018
HD Live streaming from Space Station
objects crossing your sky now

INTELSAT 2 (PAS 2)

Track INTELSAT 2 (PAS 2) now!
INTELSAT 2 (PAS 2) is classified as:


NORAD ID: 23175
Int'l Code: 1994-040A
Perigee: 36,088.8 km
Apogee: 36,109.3 km
Inclination: 7.4 °
Period: 1,451.7 minutes
Semi major axis: 42470 km
RCS: 6.3096 m2 (large)
Launch date: July 8, 1994
Source: United States (US)
Launch site: FRENCH GUIANA (FRGUI)

12 Ku-band; Asia-Pacific.
aabbcc
Your satellite tracking list
Your tracking list is empty




NASA's NSSDC Master Catalog

Two Line Element Set (TLE):
1 23175U 94040A   18232.64555586  .00000046  00000-0  00000+0 0  9994
2 23175   7.4195  53.3828 0002410 331.8478  36.2204  0.99192397 87344
Source of the keplerian elements: AFSPC